Location: Atbuku
(36.4936°N, 30.4362°E)
Time: 03:42:57
(UTC+00:00)

Cosmos 2369 - Pass Details

Date: 11 December 2025
Orbit: 838 x 854 km, 71.0° (Epoch: 13 January)

Event Time Altitude Azimuth Distance (km) Brightness Sun altitude
Rises 16:37:53 0° 207° (SSW) 3,403 7.4 -22.4°
Reaches altitude 10° 16:40:20 10° 209° (SSW) 2,472 6.6 -22.9°
Maximum altitude 16:46:00 70° 293° (WNW) 908 3.9 -24.0°
Enters shadow 16:49:02 29° 10° (N) 1,534 4.8 -24.6°
